Zurück zum Katalog

SHIYAN 28B-01

SY-28B 01

AktivMilitärLEO
NORAD 64753·PAYLOAD·🇨🇳 China

Gestartet Jul 3, 2025 von Xichang Satellite Launch Center

Loading…

Nächste Überflüge (nächste 24 Stunden)

TLE

VeraltetSource: Space-Track

Epoche: Aug 31, 2026, 23:58 UTC

1 64753U 25145A   26243.99907950  .00000568  00000-0  52563-4 0  9991
2 64753  10.9980 192.3945 0002800  18.6607 341.3724 14.29416861 60771

Verfolge SHIYAN 28B-01 in Echtzeit mit AllMySat

Download on the App Store